Weather Roundup
Issued by NWS

Home | Current Version | Previous Version | Text Only | Print | Product List | Glossary On
Versions: 1 2 3 4 5 6 7 8 9 10 11 12 13 14 15 16 17 18 19 20 21 22 23 24 25 26 27 28 29 30 31 32 33 34 35 36 37 38 39 40 41 42 43 44 45 46 47 48 49 50
935
NZUS93 KARX 311459
HRRWXR

CURRENT HOURLY OBSERVATIONS ACROSS
MUCH OF THE UPPER MISSISSIPPI VALLEY
NATIONAL WEATHER SERVICE LA CROSSE WI
1000 AM CDT TUE MAY 31 2016


...SOUTHEAST MINNESOTA...


CITY           SKY/WX    TMP DP  RH WIND       PRES   REMARKS
ROCHESTER      CLOUDY    70  60  70 S16       29.92F
ROCHESTER/MAYO PTSUNNY   70  57  64 S12G21    29.92S
WINONA         CLOUDY    73  61  64 CALM      29.92F
AUSTIN         CLOUDY    66  61  82 S13G18    29.91F
ALBERT LEA     CLOUDY    70  63  78 S9G17     29.89F
DODGE CENTER   MOSUNNY   72  59  64 S20       29.90F
PRESTON        MOSUNNY   70  59  68 S10G16    29.94S
OWATONNA       CLOUDY    66  61  82 S10G18    29.89S
FARIBAULT      NOT AVBL
$$

...ELSEWHERE IN MINNESOTA...


CITY           SKY/WX    TMP DP  RH WIND       PRES   REMARKS
MINNEAPOLIS    CLOUDY    65  61  87 S13       29.88R
INTNL FALLS    RAIN      48  45  89 SE20G28   29.91F FOG
DULUTH         CLOUDY    45  41  86 E22G31    29.94F
RED WING       PTSUNNY   66  63  88 SE7       29.88F
REDWOOD FALLS  CLOUDY    64  56  75 W12       29.86S
MANKATO        CLOUDY    66  61  82 S10       29.88F
WORTHINGTON    CLOUDY    60  55  83 NW12      29.91R
FAIRMONT       CLOUDY    66  59  77 SW10      29.90R
$$

...SOUTHWEST WISCONSIN...


CITY           SKY/WX    TMP DP  RH WIND       PRES   REMARKS
LA CROSSE      CLOUDY    74  61  63 S15       29.93F
PRAIRIE DU CHI LGT RAIN  68  60  76 CALM      29.95F
BOSCOBEL       NOT AVBL
LONE ROCK      NOT AVBL
PLATTEVILLE    CLOUDY    70  64  79 SE9       29.96F
FORT MC COY    MOSUNNY   72  61  68 S3        29.96S
MAUSTON-NEW LI CLOUDY    74  57  54 SE14G20   29.96S
VIROQUA        PTSUNNY   69  61  77 S9        29.97S
WIS DELLS      CLOUDY    74  51  44 SE9       29.97F
$$

...ELSEWHERE IN WISCONSIN...


CITY           SKY/WX    TMP DP  RH WIND       PRES   REMARKS
MILWAUKEE      MOSUNNY   62  55  77 NE6       30.03F
MADISON        PTSUNNY   75  53  46 SE13      29.96F
GREEN BAY      MOSUNNY   63  52  67 E12       30.05F
EAU CLAIRE     NOT AVBL
BLACK RVR FLS  FAIR      72  58  61 S6        29.95S
MEDFORD        CLOUDY    60  54  81 E7        29.99S
WAUSAU         CLOUDY    63  51  65 SE12      30.00S
WIS RAPIDS     MOSUNNY   71  55  56 E10       29.99F
MARSHFIELD     CLOUDY    68  56  65 SE17G24   29.98S
RICE LAKE      RAIN      62  58  86 SE14G20   29.96R
$$

...NORTHEAST IOWA...


CITY           SKY/WX    TMP DP  RH WIND       PRES   REMARKS
WATERLOO       SUNNY     73  61  65 S10       29.91F
DUBUQUE        PTSUNNY   70  62  76 S13       29.97S
DECORAH        MOSUNNY   70  61  73 S12       29.94F
MASON CITY     CLOUDY    70  64  81 SW12      29.92F
CHARLES CITY   MOSUNNY   70  64  83 S13G20    29.93F
OELWEIN        CLOUDY    70  64  83 S14       29.95F
$$

...ELSEWHERE IN IOWA...


CITY           SKY/WX    TMP DP  RH WIND       PRES   REMARKS
DES MOINES     CLOUDY    72  60  66 S10       29.92S
IOWA CITY      CLOUDY    73  62  68 CALM      29.96F
FORT DODGE     MOSUNNY   72  63  73 S6        29.91S
MARSHALLTOWN   MOSUNNY   73  63  70 S10       29.92S
CEDAR RAPIDS   CLOUDY    74  64  71 S7        29.93F
$$

...NORTHERN ILLINOIS...


CITY           SKY/WX    TMP DP  RH WIND       PRES   REMARKS
CHICAGO-OHARE  PTSUNNY   76  54  46 E12       29.99F
CHICAGO-MIDWAY PTSUNNY   79  57  46 E10       29.99F
MOLINE         CLOUDY    72  63  73 NW5       29.96S
ROCKFORD       MOSUNNY   78  59  51 SE13      29.99F
PEORIA         MOSUNNY   77  65  66 S7        29.97F
$$

NOTE: "FAIR" INDICATES FEW OR NO CLOUDS BELOW 12,000 FEET WITH NO
SIGNIFICANT WEATHER AND/OR OBSTRUCTIONS TO VISIBILITY. WIND
SPEEDS ARE IN MILES-PER-HOUR.




USA.gov is the U.S. government's official web portal to all federal, state and local government web resources and services.